Regional Weather Roundup
Issued by NWS

Home | Current Version | Previous Version | Text Only | Print | Product List | Glossary On
Versions: 1 2 3 4 5 6 7 8 9 10 11 12 13 14 15 16 17 18 19 20 21 22 23 24 25 26 27 28 29 30 31 32 33 34 35 36 37 38 39 40 41 42 43 44 45 46 47 48 49 50
000
ASUS43 KFSD 302010
RWRSD

WEATHER ROUNDUP FOR SOUTH DAKOTA
NATIONAL WEATHER SERVICE SIOUX FALLS SD
300 PM CDT SAT MAY 30 2015

NOTE: "FAIR" INDICATES FEW OR NO CLOUDS BELOW 12,000 FEET WITH NO
SIGNIFICANT WEATHER AND/OR OBSTRUCTIONS TO VISIBILITY.


SDZ001>005-009-010-012>017-302100-
NORTHWEST AND NORTH CENTRAL SOUTH DAKOTA

CITY           SKY/WX    TMP DP  RH WIND       PRES   REMARKS
BUFFALO          N/A     62  40  44 SE24G31   30.11F
FAITH            N/A     57  37  47 SE17G29   30.24F
MOBRIDGE       MOSUNNY   59  33  37 E7        30.28F
$$

SDZ012>016-024>037-041>051-057-063-072>074-302100-
SOUTHWEST AND SOUTH CENTRAL SOUTH DAKOTA

CITY           SKY/WX    TMP DP  RH WIND       PRES   REMARKS
RAPID CTY ARPT SUNNY     62  45  53 SE22G29   30.20F
PIERRE         SUNNY     58  36  43 E9        30.28F
CUSTER         SUNNY     55  43  63 S7G20     30.24F
ELLSWORTH AFB  SUNNY     62  46  56 SE21G26   30.18F
PHILIP         MOSUNNY   59  39  47 SE13G20   30.27F
PINE RIDGE     SUNNY     62  38  40 S8        30.23F
SPEARFISH      FAIR      64  50  59 E17       30.14F
WINNER         FAIR      60  33  36 N6G17     30.29F
$$

SDZ004>011-016>023-039-040-302100-
NORTHEAST SOUTH DAKOTA

CITY           SKY/WX    TMP DP  RH WIND       PRES   REMARKS
ABERDEEN       MOSUNNY   54  33  45 N10       30.33F
WATERTOWN      SUNNY     56  35  45 NE10      30.28F
BROOKINGS      MOSUNNY   54  43  66 NE10G16   30.28F
SISSETON         N/A     55  38  52 NE10      30.31F
$$

SDZ017-020-022-023-036>040-048>070-302100-
SOUTHEAST SOUTH DAKOTA

CITY           SKY/WX    TMP DP  RH WIND       PRES   REMARKS
SIOUX FALLS    MOSUNNY   60  44  55 NE17      30.25F
HURON          SUNNY     60  35  39 NE10      30.28F
CHAMBERLAIN    SUNNY     56  33  40 NE7       30.29F
MITCHELL       SUNNY     62  37  39 N7        30.28F
YANKTON        SUNNY     63  37  39 N13       30.23F
$$

ABBREVIATIONS USED IN REMARKS
   TC - TEMPERATURE IN CELSIUS
  WCI - WIND CHILL INDEX
   HX - HEAT INDEX
  VSB - VISIBILITY




USA.gov is the U.S. government's official web portal to all federal, state and local government web resources and services.